Terug naar catalogus

COSMOS 249 DEB

ActiefUNKNOWN
NORAD 3506·DEBRIS·🇷🇺 Russia

Gelanceerd Oct 20, 1968 vanaf Baikonur Cosmodrome

Loading…

Volgende Passages (komende 24 uur)

TLE

VersSource: Space-Track

Epoch: Sep 14, 2026, 19:05 UTC

1 03506U 68091C   26257.79547382 -.00000006  00000-0  45453-4 0  9997
2 03506  62.3723  39.1368 0940539 282.4829  67.2630 12.91135205718058

Volg COSMOS 249 DEB in realtime met AllMySat

Download on the App Store